Location: Bonningues
(50.7927°N, 2.0150°E)
Time: 23:46:10
(UTC+00:00)

Cosmos 2061 Rocket - Pass Details

Date: 08 August 2020
Orbit: 966 x 1012 km, 82.9° (Epoch: 23 September)

Event Time Altitude Azimuth Distance (km) Brightness Sun altitude
Exits shadow 22:41:20 39° 176° (S) 1,412 4.3 -21.4°
Maximum altitude 22:43:47 78° 97° (E) 994 3.9 -21.5°
Drops below altitude 10° 22:50:00 10° 12° (NNE) 2,719 7.2 -21.8°
Sets 22:52:31 0° 11° (NNE) 3,671 8.0 -21.9°
